SCP
0 0 0 0 0 0 0 0 0 0 0 0 0 0 0 0 0 0 0 0 0 0 0 0 0 0 0 0 0 0 0 0 1 1 1 1 1 1 1 1 1 1 1
0 0 0 0 0 0 0 0 0 0 0 0 0 0 0 0 0 0 0 0 0 0 0 0 0 0 0 0 0 0 0 0 0 1 1 1 1 1 1 1 1 1 1
0 0 0 0 0 0 0 0 0 0 0 0 0 0 0 0 0 0 0 0 0 0 0 0 0 0 0 0 0 0 0 0 0 0 0 0 0 0 0 1 1 1 1
0 0 0 0 0 0 0 0 0 0 0 0 0 0 0 0 0 0 0 0 0 0 0 0 0 0 0 0 0 0 0 0 0 0 0 0 0 0 0 0 1 1 1
0 0 0 0 0 0 0 0 0 0 0 0 0 0 0 0 0 0 0 0 0 0 0 0 0 0 0 0 0 0 0 0 0 0 0 0 0 0 0 0 0 0 1
0 0 0 0 0 0 0 0 0 0 0 0 0 0 0 0 0 0 0 0 0 0 0 0 0 0 0 0 0 0 0 0 0 0 0 0 0 0 0 0 0 0 0
0 0 0 0 0 0 0 0 0 0 0 0 0 0 0 0 0 0 0 0 0 0 0 0 0 0 0 0 0 0 0 0 0 0 0 0 0 0 0 0 0 0 0
0 0 0 0 0 0 0 0 0 0 0 0 0 0 0 0 0 0 0 0 0 0 0 0 0 0 0 0 0 0 0 0 0 0 0 0 0 0 0 0 0 0 0
0 0 0 0 0 0 0 0 0 0 0 0 0 0 0 0 0 0 0 0 0 0 0 0 0 0 0 0 0 0 0 0 0 0 0 0 0 0 0 0 0 0 0
0 0 0 0 0 0 0 0 0 0 0 0 0 0 0 0 0 0 0 0 0 0 0 0 0 0 0 0 0 0 0 0 0 0 0 0 0 0 0 0 0 0 0
0 0 0 0 0 0 0 0 0 0 0 0 0 0 0 0 0 0 0 0 0 0 0 0 0 0 0 0 0 0 0 0 0 0 0 0 0 0 0 0 0 0 0
0 0 0 0 0 0 0 0 0 0 0 0 0 0 0 0 0 0 0 0 0 0 0 0 0 0 0 0 0 0 0 0 0 0 0 0 0 0 0 0 0 0 0
0 0 0 0 0 0 0 0 0 0 0 0 0 0 0 0 0 0 0 0 0 0 0 0 0 0 0 0 0 0 0 0 0 0 0 0 0 0 0 0 0 0 0
0 0 0 0 0 0 0 0 0 0 0 0 0 0 0 0 0 0 0 0 0 0 0 0 0 0 0 0 0 0 0 0 0 0 0 0 0 0 0 0 0 0 0
0 0 0 0 0 0 0 0 0 0 0 0 0 0 0 0 0 0 0 0 0 0 0 0 0 0 0 0 0 0 0 0 0 0 0 0 0 0 0 0 0 0 0
0 0 0 0 0 0 0 0 0 0 0 0 0 0 0 0 0 0 0 0 0 0 0 0 0 0 0 0 0 0 0 0 0 0 0 0 0 0 0 0 0 0 0
0 0 0 0 0 0 0 0 0 0 0 0 0 0 0 0 0 0 0 0 0 0 0 0 0 0 0 0 0 0 0 0 0 0 0 0 0 0 0 0 0 0 0
0 0 0 0 0 0 0 0 0 0 0 0 0 0 0 0 0 0 0 0 0 0 0 0 0 0 0 0 0 0 0 0 0 0 0 0 0 0 0 0 0 0 0
0 0 0 0 0 0 0 0 0 0 0 0 0 0 0 0 0 0 0 0 0 0 0 0 0 0 0 0 0 0 0 0 0 0 0 0 0 0 0 0 0 0 0
0 0 0 0 0 0 0 0 0 0 0 0 0 0 0 0 0 0 0 0 0 0 0 0 0 0 0 0 0 0 0 0 0 0 0 0 0 0 0 0 0 0 0
0 0 0 0 0 0 0 0 0 0 0 0 0 0 0 0 0 0 0 0 0 0 0 0 0 0 0 0 0 0 0 0 0 0 0 0 0 0 0 0 0 0 0
0 0 0 0 0 0 0 0 0 0 0 0 0 0 0 0 0 0 0 0 0 0 0 0 0 0 0 0 0 0 0 0 0 0 0 0 0 0 0 0 0 0 0
0 0 0 0 0 0 0 0 0 0 0 0 0 0 0 0 0 0 0 0 0 0 0 0 0 0 0 0 0 0 0 0 0 0 0 0 0 0 0 0 0 0 0
0 0 0 0 0 0 0 0 0 0 0 0 0 0 0 0 0 0 0 0 0 0 0 0 0 0 0 0 0 0 0 0 0 0 0 0 0 0 0 0 0 0 0
0 0 0 0 0 0 0 0 0 0 0 0 0 0 0 0 0 0 0 0 0 0 0 0 0 0 0 0 0 0 0 0 0 0 0 0 0 0 0 0 0 0 0
0 0 0 0 0 0 0 0 0 0 0 0 0 0 0 0 0 0 0 0 0 0 0 0 0 0 0 0 0 0 0 0 0 0 0 0 0 0 0 0 0 0 0
Wind_Speed
5 6 6 6 5 4 4 4 4 3 3 2 2 2 3 3 4 4 6 5 4 4 3 3 3 3 3 4 4 3 4 3 3 2 3 4 6 7 7 6 6 9 10
5 6 6 5 5 5 5 5 5 4 3 2 1 1 1 2 2 3 4 5 6 6 5 4 4 3 3 4 4 3 2 2 2 2 1 2 3 4 7 6 8 9 8
8 7 7 6 6 6 6 5 5 5 3 2 1 2 2 3 3 4 4 5 7 7 6 6 4 3 3 3 4 3 3 3 2 1 1 1 2 2 2 6 8 8 7
8 7 6 6 6 5 5 5 5 4 3 3 2 1 0 2 3 3 3 6 6 7 7 6 4 3 2 2 3 2 2 3 3 2 2 3 2 2 2 2 4 7 8
9 8 6 6 5 4 4 4 4 3 2 2 2 1 1 2 3 3 4 5 5 6 6 6 5 4 2 2 3 2 2 2 3 3 2 3 3 3 2 2 2 2 4
7 5 3 4 3 3 4 4 3 2 2 1 1 2 3 3 3 4 4 4 4 5 6 6 5 4 4 4 4 3 3 3 3 3 3 3 2 2 1 2 2 2 3
4 4 5 4 4 4 3 3 3 2 2 2 2 3 3 2 2 3 3 3 3 3 5 5 4 4 4 5 4 4 4 3 3 3 3 3 3 2 2 2 2 2 2
4 5 5 5 4 4 3 3 2 2 2 2 3 2 2 1 2 3 3 4 3 4 4 4 4 5 5 5 4 4 4 4 4 4 4 3 3 2 2 2 1 1 2
6 6 5 5 4 4 3 3 3 2 2 3 2 2 2 3 3 4 4 4 4 4 4 5 5 5 5 5 4 3 5 4 4 4 4 3 3 2 2 2 2 2 1
5 5 5 4 4 3 3 3 3 3 3 3 3 3 3 4 4 4 5 5 5 5 5 6 6 6 5 5 4 4 5 5 5 4 5 4 3 2 2 2 2 2 3
6 5 5 4 4 3 3 3 3 3 4 4 4 4 4 5 5 5 6 6 5 6 6 6 6 6 6 6 5 5 5 5 5 5 5 6 5 3 3 2 2 2 2
6 5 5 4 3 3 3 4 4 4 5 5 4 5 5 5 5 6 7 6 7 7 7 6 6 7 7 6 6 7 6 5 6 6 6 6 5 5 4 3 3 3 3
6 4 4 3 4 4 5 5 5 5 5 5 4 5 5 5 6 7 7 6 7 7 7 6 7 7 7 7 7 7 7 7 7 6 6 6 5 6 5 5 4 3 3
6 4 3 4 4 5 5 5 6 5 5 4 4 5 6 6 6 6 6 6 6 7 7 7 7 7 8 8 8 8 8 8 7 7 6 6 6 7 7 5 5 4 4
5 4 4 4 4 5 5 6 5 5 4 4 5 6 6 6 5 6 6 6 6 7 7 7 7 7 7 7 8 8 9 8 7 7 6 7 10 11 9 6 6 6 5
4 4 3 3 4 5 5 5 5 5 4 5 6 6 5 5 5 6 6 6 7 7 7 7 8 8 8 10 13 9 7 7 7 7 7 8 10 12 13 14 12 10 8
5 4 4 4 5 5 5 5 5 4 4 5 5 5 4 5 6 7 7 7 7 7 8 8 8 9 10 14 15 16 9 8 8 8 7 9 10 10 7 10 13 13 14
6 4 4 4 4 4 4 4 4 4 4 5 4 4 5 6 6 7 7 8 7 7 8 8 9 9 11 14 15 16 11 8 9 9 9 9 9 9 7 6 7 7 8
6 5 5 4 3 4 4 3 4 4 4 4 5 5 5 7 7 8 8 8 7 8 8 8 9 9 11 14 15 14 7 7 9 10 10 11 10 13 13 8 7 7 6
5 4 3 2 3 4 3 2 4 4 5 5 6 6 6 7 8 9 9 8 7 8 9 9 8 9 10 12 14 13 5 7 8 7 8 13 13 13 14 9 8 8 7
5 4 3 2 3 3 2 2 4 4 5 5 5 6 6 7 8 8 7 8 8 9 9 9 8 8 9 10 12 11 5 6 6 6 6 6 12 13 13 11 8 9 7
5 4 3 2 3 3 1 3 4 5 5 5 6 7 7 8 8 8 9 8 8 9 9 7 7 5 6 7 8 9 8 7 6 6 5 6 10 11 12 10 9 11 9
6 4 4 3 3 3 2 3 5 4 4 5 6 7 8 8 7 8 8 8 7 6 7 6 6 5 4 4 7 8 7 7 5 4 6 7 8 8 7 10 11 9 6
6 4 3 2 3 3 3 4 4 3 4 5 7 7 8 8 8 6 6 6 7 7 6 6 5 5 4 3 3 3 3 4 3 3 2 3 4 4 5 5 6 5 5
5 5 4 4 4 4 4 4 3 2 4 6 6 7 7 8 8 8 7 7 8 8 8 6 5 4 4 4 4 3 2 2 3 2 1 1 1 2 2 2 3 3 4
6 5 5 4 4 4 4 4 3 2 4 5 6 6 6 7 7 8 9 10 11 14 13 11 8 5 7 6 5 5 5 5 4 2 2 2 2 3 4 4 3 4 5
Wind_Direction
182 178 180 175 167 162 148 142 130 118 97 70 53 36 355 340 341 346 349 346 333 318 298 284 281 271 258 260 265 266 269 263 247 252 266 256 235 227 225 221 223 224 222
190 194 197 192 187 180 172 161 152 142 132 133 143 164 252 302 310 326 338 343 335 321 312 288 274 267 262 270 268 259 265 273 238 220 252 284 277 242 227 215 222 225 217
194 209 204 196 188 183 179 167 163 151 146 133 90 24 8 349 345 335 332 330 328 323 315 298 277 264 246 258 264 253 243 257 264 228 213 232 260 281 244 219 219 216 210
203 209 200 187 186 187 174 159 156 156 156 138 119 132 281 288 278 286 303 316 326 331 331 322 308 285 258 263 275 264 245 238 256 261 240 234 243 266 304 294 233 218 214
206 206 198 185 175 163 149 149 149 161 176 172 169 179 256 256 279 307 326 328 327 334 340 339 340 329 306 289 289 292 272 244 234 233 239 247 250 234 233 276 287 256 228
209 197 169 137 122 115 125 140 147 180 210 211 216 220 260 284 313 326 327 322 319 323 335 341 342 336 327 311 301 291 284 272 257 244 229 221 223 228 221 244 248 250 247
174 140 126 118 123 128 141 153 157 198 237 243 263 268 273 280 290 289 291 302 308 309 314 333 333 328 317 310 305 298 288 281 278 264 251 237 224 217 214 229 251 263 276
126 129 139 142 150 156 156 157 167 213 249 260 275 285 263 238 260 268 271 280 275 274 288 308 315 317 316 315 310 297 287 281 277 279 274 264 252 226 210 210 216 260 291
138 143 150 154 161 161 165 171 178 219 254 254 254 256 245 255 264 273 275 278 276 280 298 305 309 310 311 309 305 292 289 285 273 272 272 266 260 246 233 219 204 187 215
151 152 162 171 174 174 176 179 187 212 233 240 246 243 250 259 261 267 275 276 276 279 291 294 296 297 298 299 302 292 287 287 279 268 267 266 261 254 239 230 223 201 197
169 176 182 186 184 182 187 199 220 233 242 242 241 251 259 262 262 260 261 261 263 268 271 275 281 285 286 286 287 285 285 279 281 280 265 261 258 257 246 232 224 217 202
181 186 188 197 204 210 219 228 237 243 243 237 236 243 253 260 262 261 260 257 258 260 258 261 266 271 277 276 273 275 283 272 270 271 266 261 257 251 247 234 228 228 221
188 192 203 223 232 233 238 243 247 249 246 239 237 249 260 263 262 262 262 262 261 262 260 257 257 260 263 265 266 263 264 260 255 253 253 255 249 247 242 233 225 220 228
192 197 222 245 251 247 247 248 253 253 250 245 247 258 263 262 263 266 268 268 266 265 261 256 253 254 255 256 258 259 261 261 259 251 244 245 240 239 235 232 225 213 216
191 196 213 238 254 260 261 258 258 261 254 252 257 261 264 267 271 276 276 276 274 274 264 260 259 256 256 257 253 248 255 257 260 259 251 249 251 248 235 226 218 208 208
186 193 208 241 263 268 269 266 261 261 253 254 261 267 275 280 282 283 282 282 278 274 270 264 261 261 267 267 263 254 245 244 248 256 257 258 262 259 248 236 224 209 202
192 205 227 246 259 266 265 262 259 264 267 267 272 281 288 292 291 295 296 287 281 276 273 267 262 261 261 261 262 261 249 236 238 240 246 260 258 248 239 236 234 225 217
201 221 237 251 260 263 267 266 267 276 281 284 288 290 293 294 294 294 291 287 279 277 274 272 266 263 267 263 258 257 253 239 236 233 232 237 247 248 234 228 230 225 222
202 215 225 230 253 274 274 278 288 293 296 295 293 288 291 295 297 297 293 288 284 281 275 271 268 265 270 267 263 258 248 241 239 236 234 231 234 236 227 217 220 225 231
199 207 218 230 275 282 286 292 296 300 296 292 291 290 291 293 295 292 290 287 282 280 280 277 270 265 268 272 270 263 244 243 246 242 237 233 228 226 221 211 205 214 216
194 185 185 231 265 275 286 295 296 288 282 289 295 297 296 295 290 288 288 289 287 286 283 279 278 272 268 275 276 272 240 235 243 241 233 227 224 224 220 211 205 212 202
185 180 189 243 268 272 269 288 284 276 285 296 302 301 300 299 305 297 294 290 286 288 286 282 284 280 276 275 280 282 262 238 235 240 232 224 216 217 214 210 210 207 196
189 191 193 235 272 269 233 259 269 278 294 306 306 303 303 299 294 292 293 296 291 284 286 283 280 282 284 288 294 295 284 261 240 242 233 221 218 215 210 204 196 187 180
190 188 189 227 261 257 245 242 263 278 298 304 303 303 304 304 302 296 287 288 288 287 286 280 273 273 277 285 300 302 299 285 261 254 238 208 203 194 182 178 180 171 175
191 182 189 216 242 247 249 252 257 285 301 300 299 303 299 300 303 299 290 284 275 267 269 269 255 252 264 259 265 274 281 272 254 246 220 194 174 168 159 157 162 164 170
182 181 193 212 237 239 240 248 250 265 293 300 302 301 301 301 300 303 305 294 281 282 273 252 239 237 239 251 262 274 277 278 266 246 228 220 204 191 179 175 175 177 183